Regional Weather Roundup
Issued by NWS

Home | Current Version | Previous Version | Text Only | Print | Product List | Glossary On
Versions: 1 2 3 4 5 6 7 8 9 10 11 12 13 14 15 16 17 18 19 20 21 22 23 24 25 26 27 28 29 30 31 32 33 34 35 36 37 38 39 40 41 42 43 44 45 46 47 48 49 50
000
ASUS43 KTOP 261259
RWRKS

WEATHER ROUNDUP FOR KANSAS
NATIONAL WEATHER SERVICE GOODLAND KS
800 AM CDT TUE MAY 26 2015

NOTE:  "FAIR" INDICATES FEW OR NO CLOUDS BELOW 12,000 FEET WITH NO
SIGNIFICANT WEATHER AND/OR OBSTRUCTIONS TO VISIBILITY.

KSZ001>006-013>018-027>032-041>047-261400-
NORTHWEST KANSAS

CITY           SKY/WX    TMP DP  RH WIND       PRES   REMARKS
GOODLAND       SUNNY     51  48  89 W9        29.98R
HAYS           SUNNY     57  48  72 W13       29.91R
HILL CITY      MOSUNNY   59  52  77 NW12      29.91R
RUSSELL        SUNNY     58  54  86 W12       29.88R
$$

KSZ061>065-074>080-084>089-261400-
SOUTHWEST KANSAS

CITY           SKY/WX    TMP DP  RH WIND       PRES   REMARKS
DODGE CITY     SUNNY     58  52  80 NW7       29.97R
ELKHART          N/A     54  48  80 N5          N/A
GARDEN CITY    SUNNY     54  50  86 W3        29.97R
GREAT BEND     SUNNY     59  52  77 W13       29.91R
LIBERAL        SUNNY     57  50  77 CALM      29.99R
$$

KSZ066>073-081>083-090>101-261400-
SOUTHEAST KANSAS

CITY           SKY/WX    TMP DP  RH WIND       PRES   REMARKS
CHANUTE        MOSUNNY   62  61  96 S9        29.90S
HUTCHINSON     SUNNY     63  54  72 W13       29.90R
NEWTON         MOSUNNY   61  54  77 SW13      29.91S
PARSONS        MOSUNNY   63  61  93 SW8       29.93R
WICHITA INTL   MOSUNNY   61  59  93 SW8       29.91R
WICHITA JABRA  SUNNY     61  57  87 SW10      29.90R
WICHITA MCCONL SUNNY     61  58  90 S10       29.91S
WINFIELD       SUNNY     61  59  93 SW7       29.94R
$$

KSZ007>012-019>026-033>040-048>060-102>105-261400-
NORTHEAST KANSAS

CITY           SKY/WX    TMP DP  RH WIND       PRES   REMARKS
CONCORDIA      PTSUNNY   59  55  87 W12       29.82R
EMPORIA        MOSUNNY   62  59  90 S15       29.87R
LAWRENCE       CLOUDY    62  59  90 S8        29.85R
MANHATTAN      CLOUDY    62  58  86 SW9       29.81S
OLATHE IND     CLOUDY    61  60  97 SW12      29.87R
OLATHE EXE     CLOUDY    62  60  93 S9        29.86R
SALINA         PTSUNNY   60  56  86 SW9       29.86R
TOPEKA BILLARD CLOUDY    62  60  93 S9        29.83S
TOPEKA FORBES  CLOUDY    63  60  90 S6        29.84S
$$


USA.gov is the U.S. government's official web portal to all federal, state and local government web resources and services.